Weather in Novomalorossiyskaya

Russia / Krasnodar Krai     45°38′16″N   39°53′49″E
temp.,
°C
wind,
m/s
gust,
m/s
humid.,
%
clouds,
%
prec.,
mm/h
press.,
hPa
HPBL,
m
22 april, thu
thu2200:00+11wsw1182100 0.0 102111
03:00+9nw2291100 0.0 102134
06:00+8nnw2292100 0.0 102239
09:00+12nne2280100 0.0 1022385
12:00+16ene1167100 0.0 10221157
15:00+16wnw1062100 0.4 10211036
18:00+12wsw3584100 3.3 1022150
21:00+11nw348525 3.4 102375
23 april, fri
fri2300:00+9w11885 0.0 102310
03:00+8w33930 0.0 102449
06:00+7wsw23920 0.0 102466
09:00+12wsw34710 0.0 1024480
12:00+16wsw34575 0.0 10231306
15:00+17wsw445099 0.0 10221809
18:00+16w1164100 0.0 102012
21:00+13se2263100 0.0 102019
24 april, sat
sat2400:00+11wsw3473100 0.0 101971
03:00+10nw227994 0.0 101935
06:00+10sw348395 0.0 101969
09:00+14wsw34645 0.0 1019612
12:00+17w69565 0.0 10181673
15:00+16w796475 0.6 10181549
18:00+14wnw577570 0.2 1019807
21:00+11wnw3768100 0.2 1021265
25 april, sun
sun2500:00+8wnw2471100 0.0 1022126
03:00+7nw2280100 0.0 102217
06:00+6nne3585100 0.0 1022145
09:00+10ne4564100 0.0 1022599
12:00+12ene4460100 0.0 10211079
15:00+10e3576100 0.1 1020749
18:00+8ene4794100 2.5 1020491
21:00+8ene4895100 4.4 1019480
26 april, mon
mon2600:00+7ne4796100 2.0 1019357
03:00+7ne4797100 3.7 1018282
06:00+7ne4797100 0.9 1017300
09:00+7ene3696100 1.1 1017318
12:00+8ene2292100 0.0 1017440
15:00+10ene1187100 0.1 1017494
18:00+10nnw0186100 0.0 1017320
21:00+9n1191100 0.1 101712